Bangor, ME

4:03 AM EDT on October 17, 2017 (GMT -0400)
Bangor International

Weather History for KBGR - August, 2012

Change the Weather History Date:

Friday, August 24, 2012

  Actual Average Record
Temperature  
Mean Temperature 68 °F 66 °F  
Max Temperature 81 °F 77 °F 91 °F (1948)
Min Temperature 54 °F 55 °F 38 °F (1945)
Degree Days  
Heating Degree Days 0 2  
Month to date heating degree days 1 27  
Since 1 June heating degree days 122 157  
Since 1 July heating degree days 1 50  
Cooling Degree Days 3 3  
Month to date cooling degree days 131 86  
Year to date cooling degree days 359 276  
Since 1 June cooling degree days 346 270  
Growing Degree Days 18 (Base 50)    
Moisture  
Dew Point 55 °F    
Average Humidity 66    
Maximum Humidity 100    
Minimum Humidity 32    
Precipitation  
Precipitation 0.00 in 0.09 in 1.65 in (1933)
Month to date precipitation 2.38 2.36  
Year to date precipitation 24.07 25.63  
Snow  
Snow 0.00 in 0.00 in 0.00 in (2002)
Month to date snowfall 0.0 0.0  
Since 1 June snowfall 0.0 0.0  
Since 1 July snowfall 0.0 0.0  
Snow Depth 0.00 in    
Sea Level Pressure  
Sea Level Pressure 30.17 in    
Wind  
Wind Speed 2 mph (NW)    
Max Wind Speed 13 mph    
Max Gust Speed 16 mph    
Visibility 10 miles    
Events      
T = Trace of Precipitation, MM = Missing Value Source: NWS Daily Summary

Daily Weather History Graph

Daily Weather History Graph

Search for Another Location

Airport or City:

Trip Planner

Search our weather history database for the weather conditions in past years. The results will help you decide how hot, cold, wet, or windy it might be!

Date:

Astronomy

Aug. 24, 2012 Rise Set
Actual Time 5:48 AM EDT 7:25 PM EDT
Civil Twilight 5:17 AM EDT 7:56 PM EDT
Nautical Twilight 4:40 AM EDT 8:33 PM EDT
Astronomical Twilight 3:59 AM EDT 9:13 PM EDT
Moon 1:59 PM EDT (8/24) 11:22 PM EDT (8/24)
Length of Visible Light 14h 38m
Length of Day
13h 36m
Waxing Crescent, 51% of the Moon is Illuminated
Aug 24
Waxing Crescent
Aug 31
Full
Sep 8
Last Quarter
Sep 15
New
Sep 22
First Quarter

Hourly Weather History & Observations

Time (EDT) Temp. Dew Point Humidity Pressure Visibility Wind Dir Wind Speed Gust Speed Precip Events Conditions
12:53 AM 60.1 °F 57.9 °F 93% 30.09 in 10.0 mi Calm Calm - N/A   Scattered Clouds
1:53 AM 59.0 °F 57.9 °F 96% 30.09 in 10.0 mi Calm Calm - N/A   Partly Cloudy
2:53 AM 59.0 °F 57.9 °F 96% 30.09 in 10.0 mi Calm Calm - N/A   Clear
3:53 AM 57.9 °F 57.0 °F 97% 30.10 in 10.0 mi WNW 3.5 mph - N/A   Clear
4:53 AM 55.9 °F 55.0 °F 97% 30.12 in 8.0 mi Calm Calm - 0.01 in   Clear
5:53 AM 55.9 °F 55.0 °F 97% 30.14 in 8.0 mi Calm Calm - N/A   Clear
6:53 AM 59.0 °F 57.9 °F 96% 30.15 in 10.0 mi Calm Calm - N/A   Partly Cloudy
7:53 AM 64.0 °F 60.1 °F 87% 30.17 in 10.0 mi NNW 3.5 mph - N/A   Partly Cloudy
8:53 AM 68.0 °F 59.0 °F 73% 30.17 in 10.0 mi North 5.8 mph - N/A   Partly Cloudy
9:53 AM 71.1 °F 57.9 °F 63% 30.18 in 10.0 mi North 4.6 mph - N/A   Partly Cloudy
10:53 AM 75.0 °F 53.1 °F 46% 30.19 in 10.0 mi North 6.9 mph - N/A   Partly Cloudy
11:53 AM 75.9 °F 53.1 °F 45% 30.18 in 10.0 mi North 8.1 mph - N/A   Scattered Clouds
12:53 PM 78.1 °F 55.0 °F 45% 30.18 in 10.0 mi Variable 3.5 mph - N/A   Scattered Clouds
1:53 PM 79.0 °F 54.0 °F 42% 30.17 in 10.0 mi NNW 6.9 mph - N/A   Scattered Clouds
2:53 PM 79.0 °F 51.1 °F 38% 30.17 in 10.0 mi NW 9.2 mph - N/A   Scattered Clouds
3:53 PM 80.1 °F 48.9 °F 34% 30.16 in 10.0 mi WNW 9.2 mph - N/A   Scattered Clouds
4:53 PM 80.1 °F 48.0 °F 32% 30.17 in 10.0 mi NW 9.2 mph - N/A   Scattered Clouds
5:53 PM 78.1 °F 46.9 °F 33% 30.17 in 10.0 mi NW 4.6 mph - N/A   Scattered Clouds
6:53 PM 72.0 °F 48.9 °F 44% 30.18 in 10.0 mi Calm Calm - N/A   Scattered Clouds
7:53 PM 66.0 °F 51.1 °F 59% 30.19 in 10.0 mi Calm Calm - N/A   Partly Cloudy
8:53 PM 64.0 °F 54.0 °F 70% 30.22 in 10.0 mi SW 3.5 mph - N/A   Clear
9:53 PM 63.0 °F 57.0 °F 81% 30.22 in 10.0 mi Calm Calm - N/A   Partly Cloudy
10:53 PM 60.1 °F 57.0 °F 90% 30.24 in 10.0 mi Calm Calm - N/A   Scattered Clouds
11:53 PM 57.9 °F 57.0 °F 97% 30.25 in 10.0 mi Calm Calm - N/A   Mostly Cloudy